Location: Izdebno
(52.6670°N, 16.2170°E)
Time: 12:16:15
(UTC+02:00)

Vanguard 2 - Pass Details

Date: 06 February 2023
Orbit: 553 x 2927 km, 32.9° (Epoch: 26 March)

Event Time Altitude Azimuth Distance (km) Brightness Sun altitude
Rises 22:43:42 0° 243° (WSW) 5,497 11.9 -49.2°
Reaches altitude 10° 22:47:21 10° 235° (SW) 4,794 11.5 -49.4°
Enters shadow 22:47:52 11° 234° (SW) 4,706 11.4 -49.5°
Maximum altitude 22:59:49 36° 177° (S) 3,797 - -50.4°
Drops below altitude 10° 23:14:48 10° 120° (ESE) 5,744 - -51.3°
Sets 23:19:43 0° 113° (ESE) 6,677 - -51.5°
